Starlink 31402

operational
NORAD ID: 59320 Int'l Des: 2024-057 Owner: SPXS Country: US Constellation: starlink
LEOCIRCULAR

Starlink 31402について

説明を読み込み中...

リアルタイム位置

3D地球を読み込み中...

次回通過

高度履歴

Altitude vs Time

uPlot chart will show altitude changes over time

軌道要素

1 59320U 24057A 25305.61930238 .00002302 00000-0 93155-4 0 9998
2 59320 42.9999 142.7343 0001481 262.5292 97.5391 15.27574862 90784
Epoch: Nov 1, 2025 • Age: 11 hours

現在のステータス

高度 489.7 km
速度 7.62 km/s
衛星直下点 -27.92°S, 39.28°E
打ち上げ日 Mar 25, 2024
運用期間 1.6 years
タイプ internet

技術仕様

分類 Payload
質量 730.00 kg
乾燥質量 700.00 kg
総質量 730.00 kg
長さ 0.30 m
直径 4.10 m
スパン 29.00 m
形状 Box + pan
製造者 SPXS
バスタイプ Starlink V2M
フェーズステータス In Orbit
所有者/国 SPXS/US

大規模コンステレーション

Loading constellations...